User: anonymous   Login
Location: Mascot Post Office (historical)
(40.2645°N, 99.5462°W)
Time: 09:00:46
(UTC+00:00)
Language:

Cosmos 1782 - Orbit

View from above orbital plane
View from above orbital plane
View from above satellite
View from above satellite

Ground track
Ground track

The orbit data is extracted from the following two-line orbital elements,

1 16986U 86074A   20266.11077030  .00000509  00000-0  31812-4 0  9993
2 16986  82.5066  40.0067 0008568 216.7955 143.2686 15.07305677850518
Epoch (UTC): 22 September 2020 02:39:30
Eccentricity: 0.0008568
inclination: 82.5066°
perigee height: 538 km
apogee height: 550 km
right ascension of ascending node: 40.0067°
argument of perigee: 216.7955°
revolutions per day: 15.07305677
mean anomaly at epoch: 143.2686°
orbit number at epoch: 85051

The dashed part of the orbit path shows where the satellite is in the earth's shadow,  

DLR